Regional Weather Roundup
Issued by NWS Jackson, KY

Home | Current Version | Previous Version | Graphics & Text | Print | Product List | Glossary On
Versions: 1 2 3 4 5 6 7 8 9 10 11 12 13 14 15 16 17 18 19 20 21 22 23 24 25 26 27 28 29 30 31 32 33 34 35 36 37 38 39 40 41 42 43 44 45 46 47 48 49 50
000
ASUS43 KJKL 231810
RWRJKL

EAST KENTUCKY HOURLY WEATHER ROUNDUP
NATIONAL WEATHER SERVICE JACKSON KY
200 PM EDT MON OCT 23 2017

NOTE: "FAIR" INDICATES FEW OR NO CLOUDS BELOW 12,000 FEET WITH
NO SIGNIFICANT WEATHER AND/OR OBSTRUCTIONS TO VISIBILITY.

* THESE REPORTS ARE NOT UNDER NWS QUALITY CONTROL AND MAY NOT
  REPORT WEATHER SUCH AS PRECIPITATION AND FOG.

KYZ079-080-083-085-087-088-110-112-115-119-120-231900
...EASTERN KENTUCKY...

CITY           SKY/WX    TMP DP  RH WIND       PRES   REMARKS
JACKSON        RAIN      59  59 100 CALM      29.87S VSB 1/4
6HR MIN TEMP:  59; 6HR MAX TEMP:  65; 6HR PCP:  1.14;

LONDON         LGT RAIN  60  56  86 E20G33    29.73F
6HR MIN TEMP:  60; 6HR MAX TEMP:  65; 6HR PCP:  0.97;

SOMERSET*      CLOUDY    59  59 100 S5        29.79S
MONTICELLO*    CLOUDY    64  60  87 S8        29.79F
6HR MIN TEMP:  59; 6HR MAX TEMP:  65;

WILLIAMSBURG*  MOCLDY    59  59 100 S3        29.78F
MIDDLESBORO*   LGT RAIN  59  59 100 E5        29.80F
6HR MIN TEMP:  59; 6HR MAX TEMP:  68; 6HR PCP:  1.60;

HARLAN APT*    CLOUDY    57  55  94 CALM      29.88S VSB 1/4
PIKE CO APT*   RAIN      57  57 100 W9        29.87F VSB 1
BIG SANDY APT* RAIN      58  58 100 SW3       29.88F
6HR MIN TEMP:  58; 6HR MAX TEMP:  64;

MOREHEAD APT*  LGT RAIN  59  57  94 CALM      29.84F
$$

KYZ035-036-041-042-044-050-067-078-099-231900
...CENTRAL KENTUCKY...

CITY           SKY/WX    TMP DP  RH WIND       PRES   REMARKS
MT STERLING*   RAIN      59  59 100 S10       29.85R
FLEMING/MASON* LGT RAIN  59  59  99 SE7       29.81F
DANVILLE*      CLOUDY    59  55  88 CALM      29.76R
LEXINGTON      LGT RAIN  61  55  81 SE9G22    29.75F
6HR MIN TEMP:  60; 6HR MAX TEMP:  64; 6HR PCP:  0.79;

FRANKFORT      CLOUDY    61  56  83 E16       29.68F
6HR MIN TEMP:  60; 6HR MAX TEMP:  63; 6HR PCP:  0.59;

LOUISVILLE     CLOUDY    61  57  87 SW15      29.75R
6HR MIN TEMP:  60; 6HR MAX TEMP:  66; 6HR PCP:  0.16;

LEBANON*       CLOUDY    59  57  94 SW12      29.77R
GLASGOW*       CLOUDY   N/A N/A N/A W13       29.81S
BOWLING GREEN  CLOUDY    60  55  83 W13G20    29.82R
6HR MIN TEMP:  57; 6HR MAX TEMP:  64; 6HR PCP:  0.03;

$$

KYZ091>093-OHZ055-061-077-WVZ005-015-034-035-042-231900
...SOUTHERN OHIO/WEST VIRGINIA...

CITY           SKY/WX    TMP DP  RH WIND       PRES   REMARKS
COVINGTON      LGT RAIN  62  62 100 SE15      29.72F
COLUMBUS       LGT RAIN  65  64  97 SE17G28   29.71F FOG
DAYTON         CLOUDY    63  61  93 S10       29.69F
WILMINGTON     LGT RAIN  62  61  96 S12       29.73F
HUNTINGTON     HVY RAIN  59  56  89 SW9G18    29.83R FOG
CHARLESTON     RAIN      67  61  81 SE10G18   29.80F
PINEVILLE*     LGT RAIN  65  62  90 MISG      29.89F
BECKLEY        LGT RAIN  62  59  90 SE13G23   29.88F
BLUEFIELD      LGT RAIN  62  58  86 S15G22    29.88F
LOGAN CO APT*  RAIN      64  63  94 SW8       29.84S
$$

VAZ002-007-008-TNZ017-027-036-066-071-231900
...SOUTHWEST VIRGINIA/EAST TENNESSEE...

CITY           SKY/WX    TMP DP  RH WIND       PRES   REMARKS
WISE*          RAIN      55  55 100 SW9G17    29.94R
JONESVILLE*    RAIN      57  57 100 CALM      29.90F
ABINGDON*      RAIN      65  63  92 SW6       29.88R
BRISTOL        HVY RAIN  59  58  96 W16G37    29.87R FOG
MORRISTOWN*    CLOUDY    59  59 100 E3        29.84F FOG
SEVIERVILLE*   CLOUDY    59  59 100 E6        29.81F FOG
KNOXVILLE      CLOUDY    62  62 100 S5        29.81F
LAFOLLETTE*    MOCLDY    61  59  94 S8        29.85R
OAK RIDGE      CLOUDY    63  62  97 VRB3      29.83F
CROSSVILLE     MOSUNNY   64  54  69 SW7       29.82F
NASHVILLE      CLOUDY    59  52  77 W12G22    29.87S
$$

...KEY TO REMARKS...
VSB - VISIBILITY IN MILES
WCI - WIND CHILL INDEX
HX  - HEAT INDEX

$$



USA.gov is the U.S. government's official web portal to all federal, state and local government web resources and services.